Time,TemperatureF,DewpointF,PressureIn,WindDirection,WindDirectionDegrees,WindSpeedMPH,WindSpeedGustMPH,Humidity,HourlyPrecipIn,Conditions,Clouds,dailyrainin,SoftwareType,DateUTC
2013-08-15 00:00:00,77.5,63.9,29.90,East,79,3.0,6.0,63,0.00,,,0.00,VWS V14.01,2013-08-14 22:00:00,
2013-08-15 00:05:00,77.8,64.2,29.90,East,101,5.0,8.0,63,0.00,,,0.00,VWS V14.01,2013-08-14 22:05:00,
2013-08-15 00:10:00,78.2,64.1,29.90,ESE,120,5.0,7.0,62,0.00,,,0.00,VWS V14.01,2013-08-14 22:10:00,
2013-08-15 00:15:00,78.2,64.6,29.90,ESE,119,5.0,7.0,63,0.00,,,0.00,VWS V14.01,2013-08-14 22:15:00,
2013-08-15 00:20:00,78.1,64.5,29.91,ESE,119,2.0,4.0,63,0.00,,,0.00,VWS V14.01,2013-08-14 22:20:00,
2013-08-15 00:25:00,77.9,64.8,29.91,ESE,115,3.0,4.0,64,0.00,,,0.00,VWS V14.01,2013-08-14 22:25:00,
2013-08-15 00:30:00,77.7,65.0,29.91,ESE,115,0.0,3.0,65,0.00,,,0.00,VWS V14.01,2013-08-14 22:30:00,
2013-08-15 00:31:00,77.7,65.0,29.91,ESE,115,0.0,3.0,65,0.00,,,0.00,VWS V14.01,2013-08-14 22:31:00,
2013-08-15 00:36:00,77.7,65.0,29.91,ESE,115,0.0,0.0,65,0.00,,,0.00,VWS V14.01,2013-08-14 22:36:00,
2013-08-15 00:40:00,77.5,65.3,29.91,ESE,115,0.0,0.0,66,0.00,,,0.00,VWS V14.01,2013-08-14 22:40:00,
2013-08-15 00:41:00,77.5,65.3,29.91,ESE,115,0.0,0.0,66,0.00,,,0.00,VWS V14.01,2013-08-14 22:41:00,
2013-08-15 00:46:00,77.4,65.2,29.91,ESE,115,0.0,0.0,66,0.00,,,0.00,VWS V14.01,2013-08-14 22:46:00,
2013-08-15 00:50:00,76.1,64.8,29.91,NE,47,2.0,5.0,68,0.00,,,0.00,VWS V14.01,2013-08-14 22:50:00,
2013-08-15 00:51:00,76.9,64.7,29.91,NE,51,5.0,5.0,66,0.00,,,0.00,VWS V14.01,2013-08-14 22:51:00,
2013-08-15 00:56:00,76.1,64.8,29.91,NE,47,2.0,2.0,68,0.00,,,0.00,VWS V14.01,2013-08-14 22:56:00,
2013-08-15 01:00:00,76.1,64.8,29.91,NE,47,3.0,4.0,68,0.00,,,0.00,VWS V14.01,2013-08-14 23:00:00,
2013-08-15 01:01:00,76.0,64.7,29.91,NE,47,3.0,3.0,68,0.00,,,0.00,VWS V14.01,2013-08-14 23:01:00,
2013-08-15 01:06:00,76.2,64.9,29.91,NE,47,4.0,4.0,68,0.00,,,0.00,VWS V14.01,2013-08-14 23:06:00,
2013-08-15 01:10:00,76.4,65.1,29.91,NE,47,4.0,5.0,68,0.00,,,0.00,VWS V14.01,2013-08-14 23:10:00,
2013-08-15 01:11:00,76.2,64.9,29.91,NE,47,4.0,5.0,68,0.00,,,0.00,VWS V14.01,2013-08-14 23:11:00,
2013-08-15 01:16:00,76.4,65.1,29.91,NE,47,2.0,4.0,68,0.00,,,0.00,VWS V14.01,2013-08-14 23:16:00,
2013-08-15 01:20:00,74.4,64.0,29.92,NNE,19,9.0,12.0,70,0.00,,,0.00,VWS V14.01,2013-08-14 23:20:00,
2013-08-15 01:21:00,75.6,64.3,29.91,NNE,13,6.0,12.0,68,0.00,,,0.00,VWS V14.01,2013-08-14 23:21:00,
2013-08-15 01:26:00,74.3,63.9,29.91,North,9,8.0,9.0,70,0.00,,,0.00,VWS V14.01,2013-08-14 23:26:00,
2013-08-15 01:30:00,73.3,63.7,29.92,NNE,18,7.0,19.0,72,0.00,,,0.00,VWS V14.01,2013-08-14 23:30:00,
2013-08-15 01:31:00,73.6,63.6,29.92,NNE,23,9.0,19.0,71,0.00,,,0.00,VWS V14.01,2013-08-14 23:31:00,
2013-08-15 01:36:00,73.2,63.6,29.92,NNE,12,7.0,9.0,72,0.00,,,0.00,VWS V14.01,2013-08-14 23:36:00,
2013-08-15 01:40:00,72.9,63.8,29.91,NNE,28,5.0,13.0,73,0.00,,,0.00,VWS V14.01,2013-08-14 23:40:00,
2013-08-15 01:41:00,73.0,63.5,29.91,NNE,28,8.0,12.0,72,0.00,,,0.00,VWS V14.01,2013-08-14 23:41:00,
2013-08-15 01:46:00,72.9,63.8,29.91,NE,35,6.0,6.0,73,0.00,,,0.00,VWS V14.01,2013-08-14 23:46:00,
2013-08-15 01:50:00,73.1,63.9,29.91,NNE,22,7.0,10.0,73,0.00,,,0.00,VWS V14.01,2013-08-14 23:50:00,
2013-08-15 01:51:00,73.0,63.8,29.91,NNE,19,7.0,10.0,73,0.00,,,0.00,VWS V14.01,2013-08-14 23:51:00,
2013-08-15 01:56:00,73.1,63.9,29.91,NNE,22,5.0,7.0,73,0.00,,,0.00,VWS V14.01,2013-08-14 23:56:00,
2013-08-15 02:00:00,73.2,64.0,29.91,NNE,33,4.0,10.0,73,0.00,,,0.00,VWS V14.01,2013-08-15 00:00:00,
2013-08-15 02:01:00,73.2,64.0,29.91,NNE,13,5.0,10.0,73,0.00,,,0.00,VWS V14.01,2013-08-15 00:01:00,
2013-08-15 02:06:00,73.2,64.0,29.91,NNE,33,4.0,10.0,73,0.00,,,0.00,VWS V14.01,2013-08-15 00:06:00,
2013-08-15 02:10:00,72.8,63.7,29.91,NNE,24,9.0,10.0,73,0.00,,,0.00,VWS V14.01,2013-08-15 00:10:00,
2013-08-15 02:11:00,72.9,63.8,29.91,NNE,32,6.0,10.0,73,0.00,,,0.00,VWS V14.01,2013-08-15 00:11:00,
2013-08-15 02:16:00,72.8,64.0,29.91,NNE,26,6.0,9.0,74,0.00,,,0.00,VWS V14.01,2013-08-15 00:16:00,
2013-08-15 02:20:00,73.6,64.0,29.91,NNE,29,5.0,10.0,72,0.00,,,0.00,VWS V14.01,2013-08-15 00:20:00,
2013-08-15 02:21:00,73.2,64.0,29.91,NE,36,8.0,10.0,73,0.00,,,0.00,VWS V14.01,2013-08-15 00:21:00,
2013-08-15 02:26:00,73.6,64.0,29.91,NNE,28,7.0,7.0,72,0.00,,,0.00,VWS V14.01,2013-08-15 00:26:00,
2013-08-15 02:30:00,73.8,64.2,29.91,NNE,25,4.0,8.0,72,0.00,,,0.00,VWS V14.01,2013-08-15 00:30:00,
2013-08-15 02:31:00,73.7,64.1,29.91,NNE,27,4.0,8.0,72,0.00,,,0.00,VWS V14.01,2013-08-15 00:31:00,
2013-08-15 02:36:00,73.8,64.2,29.91,NNE,27,5.0,6.0,72,0.00,,,0.00,VWS V14.01,2013-08-15 00:36:00,
2013-08-15 02:40:00,74.1,64.1,29.91,NE,34,5.0,9.0,71,0.00,,,0.00,VWS V14.01,2013-08-15 00:40:00,
2013-08-15 02:41:00,74.1,64.5,29.91,NNE,22,7.0,9.0,72,0.00,,,0.00,VWS V14.01,2013-08-15 00:41:00,
2013-08-15 02:46:00,74.0,64.0,29.91,NNE,26,7.0,11.0,71,0.00,,,0.00,VWS V14.01,2013-08-15 00:46:00,
2013-08-15 02:50:00,75.5,65.0,29.91,ENE,75,5.0,11.0,70,0.00,,,0.00,VWS V14.01,2013-08-15 00:50:00,
2013-08-15 02:51:00,74.7,64.7,29.91,NE,50,5.0,11.0,71,0.00,,,0.00,VWS V14.01,2013-08-15 00:51:00,
2013-08-15 02:56:00,75.8,64.9,29.91,ENE,66,12.0,12.0,69,0.00,,,0.00,VWS V14.01,2013-08-15 00:56:00,
2013-08-15 03:00:00,77.0,64.8,29.91,East,97,6.0,14.0,66,0.00,,,0.00,VWS V14.01,2013-08-15 01:00:00,
2013-08-15 03:01:00,76.5,64.7,29.91,East,92,9.0,14.0,67,0.00,,,0.00,VWS V14.01,2013-08-15 01:01:00,
2013-08-15 03:06:00,77.1,64.9,29.91,East,97,7.0,9.0,66,0.00,,,0.00,VWS V14.01,2013-08-15 01:06:00,
2013-08-15 03:10:00,77.1,64.0,29.91,East,79,6.0,10.0,64,0.00,,,0.00,VWS V14.01,2013-08-15 01:10:00,
2013-08-15 03:12:00,77.3,64.2,29.91,ENE,69,7.0,10.0,64,0.00,,,0.00,VWS V14.01,2013-08-15 01:12:00,
2013-08-15 03:17:00,77.2,64.1,29.91,ENE,72,8.0,10.0,64,0.00,,,0.00,VWS V14.01,2013-08-15 01:17:00,
2013-08-15 03:20:00,77.9,63.4,29.91,East,80,7.0,13.0,61,0.00,,,0.00,VWS V14.01,2013-08-15 01:20:00,
2013-08-15 03:22:00,77.5,63.9,29.91,East,94,6.0,10.0,63,0.00,,,0.00,VWS V14.01,2013-08-15 01:22:00,
2013-08-15 03:27:00,77.9,63.4,29.91,ENE,76,7.0,8.0,61,0.00,,,0.00,VWS V14.01,2013-08-15 01:27:00,
2013-08-15 03:30:00,77.9,62.9,29.91,East,80,6.0,10.0,60,0.00,,,0.00,VWS V14.01,2013-08-15 01:30:00,
2013-08-15 03:32:00,77.8,63.3,29.91,East,84,7.0,9.0,61,0.00,,,0.00,VWS V14.01,2013-08-15 01:32:00,
2013-08-15 03:37:00,78.0,63.0,29.91,East,86,5.0,10.0,60,0.00,,,0.00,VWS V14.01,2013-08-15 01:37:00,
2013-08-15 03:40:00,78.0,62.5,29.91,East,90,7.0,10.0,59,0.00,,,0.00,VWS V14.01,2013-08-15 01:40:00,
2013-08-15 03:42:00,78.0,62.5,29.91,East,100,8.0,10.0,59,0.00,,,0.00,VWS V14.01,2013-08-15 01:42:00,
2013-08-15 03:47:00,78.0,62.5,29.91,East,96,7.0,10.0,59,0.00,,,0.00,VWS V14.01,2013-08-15 01:47:00,
2013-08-15 03:50:00,77.9,62.4,29.91,East,96,7.0,10.0,59,0.00,,,0.00,VWS V14.01,2013-08-15 01:50:00,
2013-08-15 03:52:00,78.0,62.5,29.91,East,86,6.0,10.0,59,0.00,,,0.00,VWS V14.01,2013-08-15 01:52:00,
2013-08-15 03:57:00,77.9,62.4,29.91,East,101,14.0,14.0,59,0.00,,,0.00,VWS V14.01,2013-08-15 01:57:00,
2013-08-15 04:00:00,77.9,62.4,29.91,ESE,106,10.0,14.0,59,0.00,,,0.00,VWS V14.01,2013-08-15 02:00:00,
2013-08-15 04:02:00,77.9,62.0,29.91,East,82,7.0,14.0,58,0.00,,,0.00,VWS V14.01,2013-08-15 02:02:00,
2013-08-15 04:07:00,77.9,62.0,29.91,East,96,10.0,10.0,58,0.00,,,0.00,VWS V14.01,2013-08-15 02:07:00,
2013-08-15 04:10:00,77.5,62.1,29.91,ESE,107,8.0,10.0,59,0.00,,,0.00,VWS V14.01,2013-08-15 02:10:00,
2013-08-15 04:12:00,77.5,62.1,29.91,ENE,76,7.0,10.0,59,0.00,,,0.00,VWS V14.01,2013-08-15 02:12:00,
2013-08-15 04:17:00,77.5,62.1,29.91,East,100,8.0,9.0,59,0.00,,,0.00,VWS V14.01,2013-08-15 02:17:00,
2013-08-15 04:20:00,77.8,61.8,29.91,East,93,5.0,9.0,58,0.00,,,0.00,VWS V14.01,2013-08-15 02:20:00,
2013-08-15 04:22:00,77.7,61.8,29.91,East,96,8.0,9.0,58,0.00,,,0.00,VWS V14.01,2013-08-15 02:22:00,
2013-08-15 04:27:00,77.8,61.9,29.91,ENE,75,4.0,9.0,58,0.00,,,0.00,VWS V14.01,2013-08-15 02:27:00,
2013-08-15 04:30:00,78.5,61.5,29.91,ESE,105,9.0,13.0,56,0.00,,,0.00,VWS V14.01,2013-08-15 02:30:00,
2013-08-15 04:32:00,78.2,61.7,29.91,East,86,7.0,12.0,57,0.00,,,0.00,VWS V14.01,2013-08-15 02:32:00,
2013-08-15 04:37:00,78.5,61.5,29.91,East,80,11.0,13.0,56,0.00,,,0.00,VWS V14.01,2013-08-15 02:37:00,
2013-08-15 04:40:00,78.2,61.7,29.91,East,80,6.0,13.0,57,0.00,,,0.00,VWS V14.01,2013-08-15 02:40:00,
2013-08-15 04:42:00,78.4,61.9,29.91,East,80,7.0,13.0,57,0.00,,,0.00,VWS V14.01,2013-08-15 02:42:00,
2013-08-15 04:47:00,78.1,61.6,29.92,East,85,9.0,9.0,57,0.00,,,0.00,VWS V14.01,2013-08-15 02:47:00,
2013-08-15 04:50:00,78.1,62.1,29.91,East,96,2.0,10.0,58,0.00,,,0.00,VWS V14.01,2013-08-15 02:50:00,
2013-08-15 04:52:00,78.2,62.2,29.92,East,82,6.0,10.0,58,0.00,,,0.00,VWS V14.01,2013-08-15 02:52:00,
2013-08-15 04:57:00,78.1,62.1,29.91,East,92,5.0,6.0,58,0.00,,,0.00,VWS V14.01,2013-08-15 02:57:00,
2013-08-15 05:00:00,77.8,62.3,29.91,East,84,5.0,6.0,59,0.00,,,0.00,VWS V14.01,2013-08-15 03:00:00,
2013-08-15 05:02:00,77.9,62.4,29.91,East,93,2.0,6.0,59,0.00,,,0.00,VWS V14.01,2013-08-15 03:02:00,
2013-08-15 05:07:00,77.8,62.3,29.91,ENE,68,5.0,8.0,59,0.00,,,0.00,VWS V14.01,2013-08-15 03:07:00,
2013-08-15 05:10:00,77.3,62.3,29.92,East,82,3.0,8.0,60,0.00,,,0.00,VWS V14.01,2013-08-15 03:10:00,
2013-08-15 05:12:00,77.5,62.5,29.92,East,82,5.0,8.0,60,0.00,,,0.00,VWS V14.01,2013-08-15 03:12:00,
2013-08-15 05:17:00,77.3,62.3,29.92,East,81,5.0,6.0,60,0.00,,,0.00,VWS V14.01,2013-08-15 03:17:00,
2013-08-15 05:20:00,76.9,62.4,29.92,East,83,3.0,7.0,61,0.00,,,0.00,VWS V14.01,2013-08-15 03:20:00,
2013-08-15 05:22:00,77.0,62.5,29.92,East,83,3.0,7.0,61,0.00,,,0.00,VWS V14.01,2013-08-15 03:22:00,
2013-08-15 05:27:00,76.8,62.3,29.92,East,83,3.0,3.0,61,0.00,,,0.00,VWS V14.01,2013-08-15 03:27:00,
2013-08-15 05:30:00,76.4,62.0,29.92,East,83,1.0,5.0,61,0.00,,,0.00,VWS V14.01,2013-08-15 03:30:00,
2013-08-15 05:32:00,76.8,62.3,29.92,East,83,0.0,5.0,61,0.00,,,0.00,VWS V14.01,2013-08-15 03:32:00,
2013-08-15 05:37:00,76.1,62.2,29.92,East,83,2.0,3.0,62,0.00,,,0.00,VWS V14.01,2013-08-15 03:37:00,
2013-08-15 05:40:00,76.2,62.2,29.92,East,82,3.0,5.0,62,0.00,,,0.00,VWS V14.01,2013-08-15 03:40:00,
2013-08-15 05:42:00,76.1,62.2,29.92,East,83,5.0,5.0,62,0.00,,,0.00,VWS V14.01,2013-08-15 03:42:00,
2013-08-15 05:47:00,76.3,61.9,29.92,East,80,6.0,6.0,61,0.00,,,0.00,VWS V14.01,2013-08-15 03:47:00,
2013-08-15 05:50:00,77.3,61.9,29.92,ENE,61,5.0,13.0,59,0.00,,,0.00,VWS V14.01,2013-08-15 03:50:00,
2013-08-15 05:52:00,77.0,62.1,29.92,ENE,61,7.0,13.0,60,0.00,,,0.00,VWS V14.01,2013-08-15 03:52:00,
2013-08-15 05:57:00,77.2,61.8,29.92,ENE,57,10.0,11.0,59,0.00,,,0.00,VWS V14.01,2013-08-15 03:57:00,
2013-08-15 06:00:00,77.1,61.7,29.92,ENE,67,10.0,11.0,59,0.00,,,0.00,VWS V14.01,2013-08-15 04:00:00,
2013-08-15 06:01:00,77.2,61.8,29.92,ENE,61,8.0,11.0,59,0.00,,,0.00,VWS V14.01,2013-08-15 04:01:00,
2013-08-15 06:06:00,77.1,61.7,29.92,ENE,67,10.0,11.0,59,0.00,,,0.00,VWS V14.01,2013-08-15 04:06:00,
2013-08-15 06:10:00,77.4,61.5,29.92,ENE,63,5.0,9.0,58,0.00,,,0.00,VWS V14.01,2013-08-15 04:10:00,
2013-08-15 06:11:00,77.2,61.3,29.92,ENE,65,7.0,8.0,58,0.00,,,0.00,VWS V14.01,2013-08-15 04:11:00,
2013-08-15 06:16:00,77.4,61.5,29.92,ENE,62,2.0,5.0,58,0.00,,,0.00,VWS V14.01,2013-08-15 04:16:00,
2013-08-15 06:20:00,77.1,61.2,29.92,ENE,72,4.0,7.0,58,0.00,,,0.00,VWS V14.01,2013-08-15 04:20:00,
2013-08-15 06:21:00,77.2,61.3,29.92,ENE,64,4.0,7.0,58,0.00,,,0.00,VWS V14.01,2013-08-15 04:21:00,
2013-08-15 06:26:00,77.0,61.1,29.92,ENE,60,4.0,5.0,58,0.00,,,0.00,VWS V14.01,2013-08-15 04:26:00,
2013-08-15 06:30:00,76.3,61.4,29.93,NE,42,4.0,8.0,60,0.00,,,0.00,VWS V14.01,2013-08-15 04:30:00,
2013-08-15 06:31:00,76.5,61.6,29.93,NE,42,8.0,8.0,60,0.00,,,0.00,VWS V14.01,2013-08-15 04:31:00,
2013-08-15 06:36:00,76.3,61.4,29.93,NE,42,3.0,4.0,60,0.00,,,0.00,VWS V14.01,2013-08-15 04:36:00,
2013-08-15 06:40:00,76.3,61.9,29.93,NE,48,7.0,9.0,61,0.00,,,0.00,VWS V14.01,2013-08-15 04:40:00,
2013-08-15 06:41:00,76.1,61.7,29.93,NE,35,6.0,9.0,61,0.00,,,0.00,VWS V14.01,2013-08-15 04:41:00,
2013-08-15 06:46:00,76.3,61.9,29.93,NE,54,5.0,7.0,61,0.00,,,0.00,VWS V14.01,2013-08-15 04:46:00,
2013-08-15 06:50:00,76.3,61.9,29.93,ENE,71,5.0,9.0,61,0.00,,,0.00,VWS V14.01,2013-08-15 04:50:00,
2013-08-15 06:51:00,75.8,61.9,29.93,ENE,64,7.0,9.0,62,0.00,,,0.00,VWS V14.01,2013-08-15 04:51:00,
2013-08-15 06:56:00,76.4,62.0,29.93,ENE,59,9.0,11.0,61,0.00,,,0.00,VWS V14.01,2013-08-15 04:56:00,
2013-08-15 07:00:00,77.2,61.8,29.93,ENE,78,4.0,12.0,59,0.00,,,0.00,VWS V14.01,2013-08-15 05:00:00,
2013-08-15 07:01:00,77.0,61.6,29.93,ENE,69,3.0,12.0,59,0.00,,,0.00,VWS V14.01,2013-08-15 05:01:00,
2013-08-15 07:06:00,77.2,61.8,29.93,ENE,77,3.0,4.0,59,0.00,,,0.00,VWS V14.01,2013-08-15 05:06:00,
2013-08-15 07:10:00,77.5,61.6,29.93,East,87,3.0,7.0,58,0.00,,,0.00,VWS V14.01,2013-08-15 05:10:00,
2013-08-15 07:11:00,77.3,61.4,29.93,East,81,5.0,7.0,58,0.00,,,0.00,VWS V14.01,2013-08-15 05:11:00,
2013-08-15 07:16:00,77.5,61.6,29.93,East,80,6.0,7.0,58,0.00,,,0.00,VWS V14.01,2013-08-15 05:16:00,
2013-08-15 07:20:00,77.6,61.7,29.93,East,85,3.0,8.0,58,0.00,,,0.00,VWS V14.01,2013-08-15 05:20:00,
2013-08-15 07:21:00,77.6,61.7,29.93,ESE,107,3.0,7.0,58,0.00,,,0.00,VWS V14.01,2013-08-15 05:21:00,
2013-08-15 07:26:00,77.6,61.7,29.93,East,84,5.0,5.0,58,0.00,,,0.00,VWS V14.01,2013-08-15 05:26:00,
2013-08-15 07:30:00,77.5,61.6,29.93,ENE,75,2.0,5.0,58,0.00,,,0.00,VWS V14.01,2013-08-15 05:30:00,
2013-08-15 07:31:00,77.6,61.7,29.93,ENE,75,3.0,5.0,58,0.00,,,0.00,VWS V14.01,2013-08-15 05:31:00,
2013-08-15 07:36:00,77.4,61.5,29.93,ENE,75,2.0,4.0,58,0.00,,,0.00,VWS V14.01,2013-08-15 05:36:00,
2013-08-15 07:40:00,77.8,61.8,29.93,ENE,57,2.0,10.0,58,0.00,,,0.00,VWS V14.01,2013-08-15 05:40:00,
2013-08-15 07:41:00,77.5,61.6,29.93,NE,44,7.0,10.0,58,0.00,,,0.00,VWS V14.01,2013-08-15 05:41:00,
2013-08-15 07:46:00,77.8,61.9,29.93,ENE,63,5.0,7.0,58,0.00,,,0.00,VWS V14.01,2013-08-15 05:46:00,
2013-08-15 07:50:00,77.7,62.2,29.94,ENE,65,1.0,7.0,59,0.00,,,0.00,VWS V14.01,2013-08-15 05:50:00,
2013-08-15 07:51:00,77.8,61.9,29.93,ENE,63,1.0,7.0,58,0.00,,,0.00,VWS V14.01,2013-08-15 05:51:00,
2013-08-15 07:56:00,77.9,62.4,29.93,ENE,65,3.0,3.0,59,0.00,,,0.00,VWS V14.01,2013-08-15 05:56:00,
2013-08-15 08:00:00,77.2,61.8,29.93,ENE,78,4.0,12.0,59,0.00,,,0.00,VWS V14.01,2013-08-15 06:00:00,
2013-08-15 08:01:00,78.5,62.0,29.93,ENE,77,1.0,7.0,57,0.00,,,0.00,VWS V14.01,2013-08-15 06:01:00,
2013-08-15 08:06:00,79.1,62.1,29.94,ENE,74,2.0,7.0,56,0.00,,,0.00,VWS V14.01,2013-08-15 06:06:00,
2013-08-15 08:10:00,80.0,62.4,29.94,East,90,1.0,7.0,55,0.00,,,0.00,VWS V14.01,2013-08-15 06:10:00,
2013-08-15 08:11:00,79.5,62.5,29.94,East,90,3.0,7.0,56,0.00,,,0.00,VWS V14.01,2013-08-15 06:11:00,
2013-08-15 08:16:00,80.1,62.5,29.94,East,90,1.0,1.0,55,0.00,,,0.00,VWS V14.01,2013-08-15 06:16:00,
2013-08-15 08:20:00,80.4,61.7,29.94,East,80,7.0,9.0,53,0.00,,,0.00,VWS V14.01,2013-08-15 06:20:00,
2013-08-15 08:21:00,80.7,62.0,29.94,East,92,5.0,7.0,53,0.00,,,0.00,VWS V14.01,2013-08-15 06:21:00,
2013-08-15 08:26:00,80.4,61.7,29.94,ENE,75,2.0,7.0,53,0.00,,,0.00,VWS V14.01,2013-08-15 06:26:00,
2013-08-15 08:30:00,80.8,61.5,29.94,ENE,71,3.0,7.0,52,0.00,,,0.00,VWS V14.01,2013-08-15 06:30:00,
2013-08-15 08:31:00,80.7,62.0,29.93,ENE,71,2.0,7.0,53,0.00,,,0.00,VWS V14.01,2013-08-15 06:31:00,
2013-08-15 08:36:00,80.8,61.5,29.94,NE,56,3.0,5.0,52,0.00,,,0.00,VWS V14.01,2013-08-15 06:36:00,
2013-08-15 08:40:00,81.7,62.4,29.94,NE,34,2.0,6.0,52,0.00,,,0.00,VWS V14.01,2013-08-15 06:40:00,
2013-08-15 08:41:00,81.2,61.9,29.94,NNE,32,3.0,6.0,52,0.00,,,0.00,VWS V14.01,2013-08-15 06:41:00,
2013-08-15 08:46:00,81.7,61.8,29.94,NE,34,1.0,2.0,51,0.00,,,0.00,VWS V14.01,2013-08-15 06:46:00,
2013-08-15 08:50:00,81.5,63.8,29.94,North,360,4.0,5.0,55,0.00,,,0.00,VWS V14.01,2013-08-15 06:50:00,
2013-08-15 08:51:00,82.0,63.2,29.94,NE,34,1.0,2.0,53,0.00,,,0.00,VWS V14.01,2013-08-15 06:51:00,
2013-08-15 08:56:00,81.3,63.6,29.94,NNW,337,7.0,7.0,55,0.00,,,0.00,VWS V14.01,2013-08-15 06:56:00,
2013-08-15 09:00:00,80.5,63.4,29.94,NNW,340,4.0,7.0,56,0.00,,,0.00,VWS V14.01,2013-08-15 07:00:00,
2013-08-15 09:01:00,80.7,63.6,29.94,NNW,331,2.0,7.0,56,0.00,,,0.00,VWS V14.01,2013-08-15 07:01:00,
2013-08-15 09:06:00,80.5,63.4,29.94,NNW,340,4.0,7.0,56,0.00,,,0.00,VWS V14.01,2013-08-15 07:06:00,
2013-08-15 09:10:00,80.6,63.5,29.94,North,350,4.0,6.0,56,0.00,,,0.00,VWS V14.01,2013-08-15 07:10:00,
2013-08-15 09:11:00,80.2,63.1,29.94,NNW,343,4.0,6.0,56,0.00,,,0.00,VWS V14.01,2013-08-15 07:11:00,
2013-08-15 09:16:00,80.6,63.5,29.94,North,350,4.0,6.0,56,0.00,,,0.00,VWS V14.01,2013-08-15 07:16:00,
2013-08-15 09:20:00,81.2,63.5,29.95,NNW,342,2.0,6.0,55,0.00,,,0.00,VWS V14.01,2013-08-15 07:20:00,
2013-08-15 09:21:00,80.9,63.2,29.94,NNW,344,2.0,6.0,55,0.00,,,0.00,VWS V14.01,2013-08-15 07:21:00,
2013-08-15 09:26:00,81.3,63.6,29.95,NNW,342,4.0,5.0,55,0.00,,,0.00,VWS V14.01,2013-08-15 07:26:00,
2013-08-15 09:30:00,81.6,63.9,29.95,NW,308,3.0,7.0,55,0.00,,,0.00,VWS V14.01,2013-08-15 07:30:00,
2013-08-15 09:31:00,81.6,63.9,29.95,NNW,328,3.0,6.0,55,0.00,,,0.00,VWS V14.01,2013-08-15 07:31:00,
2013-08-15 09:36:00,81.6,63.9,29.95,NW,308,1.0,3.0,55,0.00,,,0.00,VWS V14.01,2013-08-15 07:36:00,
2013-08-15 09:40:00,82.6,63.8,29.94,NNW,331,2.0,5.0,53,0.00,,,0.00,VWS V14.01,2013-08-15 07:40:00,
2013-08-15 09:41:00,82.0,64.3,29.95,NW,318,0.0,5.0,55,0.00,,,0.00,VWS V14.01,2013-08-15 07:41:00,
2013-08-15 09:46:00,82.8,62.8,29.94,NNW,333,0.0,4.0,51,0.00,,,0.00,VWS V14.01,2013-08-15 07:46:00,
2013-08-15 09:50:00,84.2,63.6,29.94,NNW,336,2.0,4.0,50,0.00,,,0.00,VWS V14.01,2013-08-15 07:50:00,
2013-08-15 09:51:00,83.7,63.1,29.95,NNW,333,1.0,4.0,50,0.00,,,0.00,VWS V14.01,2013-08-15 07:51:00,
2013-08-15 09:56:00,84.1,63.5,29.94,NNW,337,3.0,4.0,50,0.00,,,0.00,VWS V14.01,2013-08-15 07:56:00,
2013-08-15 10:00:00,82.3,62.9,29.95,West,267,3.0,6.0,52,0.00,,,0.00,VWS V14.01,2013-08-15 08:00:00,
2013-08-15 10:01:00,83.0,63.0,29.95,WNW,286,6.0,6.0,51,0.00,,,0.00,VWS V14.01,2013-08-15 08:01:00,
2013-08-15 10:06:00,82.3,62.9,29.95,West,267,3.0,6.0,52,0.00,,,0.00,VWS V14.01,2013-08-15 08:06:00,
2013-08-15 10:10:00,82.5,63.7,29.95,West,265,0.0,6.0,53,0.00,,,0.00,VWS V14.01,2013-08-15 08:10:00,
2013-08-15 10:11:00,82.4,63.6,29.95,West,264,1.0,6.0,53,0.00,,,0.00,VWS V14.01,2013-08-15 08:11:00,
2013-08-15 10:16:00,82.6,63.8,29.95,West,265,3.0,4.0,53,0.00,,,0.00,VWS V14.01,2013-08-15 08:16:00,
2013-08-15 10:20:00,82.1,63.8,29.95,SW,234,6.0,7.0,54,0.00,,,0.00,VWS V14.01,2013-08-15 08:20:00,
2013-08-15 10:21:00,82.4,63.0,29.95,WSW,242,4.0,6.0,52,0.00,,,0.00,VWS V14.01,2013-08-15 08:21:00,
2013-08-15 10:26:00,82.0,63.2,29.95,SW,225,7.0,7.0,53,0.00,,,0.00,VWS V14.01,2013-08-15 08:26:00,
2013-08-15 10:30:00,82.0,64.3,29.95,SW,234,8.0,8.0,55,0.00,,,0.00,VWS V14.01,2013-08-15 08:30:00,
2013-08-15 10:31:00,82.2,63.4,29.95,SW,229,5.0,8.0,53,0.00,,,0.00,VWS V14.01,2013-08-15 08:31:00,
2013-08-15 10:36:00,81.7,64.5,29.95,SW,232,9.0,9.0,56,0.00,,,0.00,VWS V14.01,2013-08-15 08:36:00,
2013-08-15 10:40:00,81.7,65.0,29.96,SW,225,7.0,9.0,57,0.00,,,0.00,VWS V14.01,2013-08-15 08:40:00,
2013-08-15 10:41:00,81.9,64.7,29.95,WSW,239,3.0,9.0,56,0.00,,,0.00,VWS V14.01,2013-08-15 08:41:00,
2013-08-15 10:46:00,81.7,65.5,29.95,WSW,237,5.0,7.0,58,0.00,,,0.00,VWS V14.01,2013-08-15 08:46:00,
2013-08-15 10:50:00,82.3,64.5,29.95,SW,229,7.0,7.0,55,0.00,,,0.00,VWS V14.01,2013-08-15 08:50:00,
2013-08-15 10:51:00,82.3,65.6,29.96,SW,219,2.0,7.0,57,0.00,,,0.00,VWS V14.01,2013-08-15 08:51:00,
2013-08-15 10:56:00,82.2,64.4,29.95,WSW,240,5.0,7.0,55,0.00,,,0.00,VWS V14.01,2013-08-15 08:56:00,
2013-08-15 11:00:00,82.0,65.8,29.96,SW,231,5.0,9.0,58,0.00,,,0.00,VWS V14.01,2013-08-15 09:00:00,
2013-08-15 11:01:00,82.7,64.9,29.96,SW,233,8.0,8.0,55,0.00,,,0.00,VWS V14.01,2013-08-15 09:01:00,
2013-08-15 11:06:00,82.0,65.8,29.96,SW,231,5.0,9.0,58,0.00,,,0.00,VWS V14.01,2013-08-15 09:06:00,
2013-08-15 11:10:00,82.4,65.1,29.95,SW,218,5.0,7.0,56,0.00,,,0.00,VWS V14.01,2013-08-15 09:10:00,
2013-08-15 11:11:00,82.2,64.4,29.96,SSW,205,4.0,7.0,55,0.00,,,0.00,VWS V14.01,2013-08-15 09:11:00,
2013-08-15 11:16:00,82.4,64.6,29.95,SW,217,5.0,5.0,55,0.00,,,0.00,VWS V14.01,2013-08-15 09:16:00,
2013-08-15 11:20:00,82.8,66.0,29.96,South,187,6.0,8.0,57,0.00,,,0.00,VWS V14.01,2013-08-15 09:20:00,
2013-08-15 11:21:00,82.3,65.6,29.95,SW,221,3.0,8.0,57,0.00,,,0.00,VWS V14.01,2013-08-15 09:21:00,
2013-08-15 11:26:00,82.8,66.0,29.96,South,184,8.0,8.0,57,0.00,,,0.00,VWS V14.01,2013-08-15 09:26:00,
2013-08-15 11:30:00,82.1,64.9,29.96,South,190,7.0,9.0,56,0.00,,,0.00,VWS V14.01,2013-08-15 09:30:00,
2013-08-15 11:31:00,82.2,65.5,29.96,SW,224,5.0,9.0,57,0.00,,,0.00,VWS V14.01,2013-08-15 09:31:00,
2013-08-15 11:36:00,81.9,65.2,29.96,SSW,202,5.0,7.0,57,0.00,,,0.00,VWS V14.01,2013-08-15 09:36:00,
2013-08-15 11:40:00,82.2,66.5,29.96,South,190,9.0,9.0,59,0.00,,,0.00,VWS V14.01,2013-08-15 09:40:00,
2013-08-15 11:41:00,82.1,65.9,29.96,SW,232,7.0,7.0,58,0.00,,,0.00,VWS V14.01,2013-08-15 09:41:00,
2013-08-15 11:46:00,82.1,65.9,29.96,SSW,194,8.0,9.0,58,0.00,,,0.00,VWS V14.01,2013-08-15 09:46:00,
2013-08-15 11:50:00,82.3,65.6,29.96,SSW,208,4.0,9.0,57,0.00,,,0.00,VWS V14.01,2013-08-15 09:50:00,
2013-08-15 11:51:00,81.8,65.6,29.96,SW,225,2.0,9.0,58,0.00,,,0.00,VWS V14.01,2013-08-15 09:51:00,
2013-08-15 11:56:00,82.4,65.1,29.96,SW,215,5.0,6.0,56,0.00,,,0.00,VWS V14.01,2013-08-15 09:56:00,
2013-08-15 12:00:00,82.3,64.5,29.96,SW,232,4.0,8.0,55,0.00,,,0.00,VWS V14.01,2013-08-15 10:00:00,
2013-08-15 12:01:00,82.5,65.2,29.96,SSW,205,3.0,7.0,56,0.00,,,0.00,VWS V14.01,2013-08-15 10:01:00,
2013-08-15 12:06:00,82.3,64.5,29.96,SW,232,4.0,8.0,55,0.00,,,0.00,VWS V14.01,2013-08-15 10:06:00,
2013-08-15 12:10:00,82.5,66.2,29.96,WSW,252,5.0,9.0,58,0.00,,,0.00,VWS V14.01,2013-08-15 10:10:00,
2013-08-15 12:11:00,82.6,66.3,29.96,WSW,255,5.0,9.0,58,0.00,,,0.00,VWS V14.01,2013-08-15 10:11:00,
2013-08-15 12:16:00,82.6,65.8,29.96,WSW,252,6.0,6.0,57,0.00,,,0.00,VWS V14.01,2013-08-15 10:16:00,
2013-08-15 12:20:00,83.6,66.3,29.95,WSW,257,5.0,7.0,56,0.00,,,0.00,VWS V14.01,2013-08-15 10:20:00,
2013-08-15 12:21:00,83.1,65.3,29.96,WSW,247,5.0,6.0,55,0.00,,,0.00,VWS V14.01,2013-08-15 10:21:00,
2013-08-15 12:26:00,83.5,65.7,29.96,West,261,6.0,7.0,55,0.00,,,0.00,VWS V14.01,2013-08-15 10:26:00,
2013-08-15 12:30:00,83.5,65.1,29.96,WSW,257,5.0,8.0,54,0.00,,,0.00,VWS V14.01,2013-08-15 10:30:00,
2013-08-15 12:31:00,83.3,65.5,29.96,WSW,252,4.0,8.0,55,0.00,,,0.00,VWS V14.01,2013-08-15 10:31:00,
2013-08-15 12:36:00,83.8,65.9,29.96,WSW,258,5.0,5.0,55,0.00,,,0.00,VWS V14.01,2013-08-15 10:36:00,
2013-08-15 12:40:00,83.6,65.2,29.95,SW,215,6.0,8.0,54,0.00,,,0.00,VWS V14.01,2013-08-15 10:40:00,
2013-08-15 12:41:00,83.7,65.3,29.96,SSW,209,5.0,8.0,54,0.00,,,0.00,VWS V14.01,2013-08-15 10:41:00,
2013-08-15 12:46:00,83.5,65.1,29.95,SW,219,7.0,8.0,54,0.00,,,0.00,VWS V14.01,2013-08-15 10:46:00,
2013-08-15 12:50:00,83.6,66.3,29.96,South,184,7.0,9.0,56,0.00,,,0.00,VWS V14.01,2013-08-15 10:50:00,
2013-08-15 12:51:00,83.3,64.9,29.95,SSW,213,3.0,8.0,54,0.00,,,0.00,VWS V14.01,2013-08-15 10:51:00,
2013-08-15 12:56:00,83.7,67.4,29.95,South,184,7.0,8.0,58,0.00,,,0.00,VWS V14.01,2013-08-15 10:56:00,
2013-08-15 13:00:00,83.5,67.2,29.95,South,180,9.0,10.0,58,0.00,,,0.00,VWS V14.01,2013-08-15 11:00:00,
2013-08-15 13:01:00,83.6,66.8,29.96,SW,224,8.0,9.0,57,0.00,,,0.00,VWS V14.01,2013-08-15 11:01:00,
2013-08-15 13:06:00,83.5,67.2,29.95,South,180,9.0,10.0,58,0.00,,,0.00,VWS V14.01,2013-08-15 11:06:00,
2013-08-15 13:10:00,83.1,66.8,29.95,SW,234,3.0,10.0,58,0.00,,,0.00,VWS V14.01,2013-08-15 11:10:00,
2013-08-15 13:11:00,83.0,67.2,29.95,South,182,6.0,10.0,59,0.00,,,0.00,VWS V14.01,2013-08-15 11:11:00,
2013-08-15 13:16:00,83.4,67.1,29.96,South,191,6.0,7.0,58,0.00,,,0.00,VWS V14.01,2013-08-15 11:16:00,
2013-08-15 13:20:00,84.2,65.2,29.95,South,172,5.0,9.0,53,0.00,,,0.00,VWS V14.01,2013-08-15 11:20:00,
2013-08-15 13:22:00,84.2,66.3,29.95,WSW,237,7.0,7.0,55,0.00,,,0.00,VWS V14.01,2013-08-15 11:22:00,
2013-08-15 13:27:00,84.3,65.3,29.95,South,171,5.0,5.0,53,0.00,,,0.00,VWS V14.01,2013-08-15 11:27:00,
2013-08-15 13:30:00,84.3,64.8,29.95,SSW,211,8.0,9.0,52,0.00,,,0.00,VWS V14.01,2013-08-15 11:30:00,
2013-08-15 13:32:00,84.3,64.8,29.95,SSW,194,5.0,8.0,52,0.00,,,0.00,VWS V14.01,2013-08-15 11:32:00,
2013-08-15 13:36:00,84.2,65.2,29.95,SW,228,4.0,8.0,53,0.00,,,0.00,VWS V14.01,2013-08-15 11:36:00,
2013-08-15 13:40:00,84.5,65.0,29.95,South,171,6.0,8.0,52,0.00,,,0.00,VWS V14.01,2013-08-15 11:40:00,
2013-08-15 13:41:00,84.0,65.1,29.95,SW,216,6.0,8.0,53,0.00,,,0.00,VWS V14.01,2013-08-15 11:41:00,
2013-08-15 13:46:00,84.5,65.0,29.95,South,175,5.0,7.0,52,0.00,,,0.00,VWS V14.01,2013-08-15 11:46:00,
2013-08-15 13:50:00,83.2,65.4,29.95,SW,228,8.0,11.0,55,0.00,,,0.00,VWS V14.01,2013-08-15 11:50:00,
2013-08-15 13:51:00,83.6,64.7,29.95,SW,233,5.0,11.0,53,0.00,,,0.00,VWS V14.01,2013-08-15 11:51:00,
2013-08-15 13:56:00,83.4,65.6,29.95,SSW,208,5.0,8.0,55,0.00,,,0.00,VWS V14.01,2013-08-15 11:56:00,
2013-08-15 14:00:00,84.0,65.1,29.95,South,176,5.0,11.0,53,0.00,,,0.00,VWS V14.01,2013-08-15 12:00:00,
2013-08-15 14:02:00,83.9,65.5,29.95,SSW,193,4.0,11.0,54,0.00,,,0.00,VWS V14.01,2013-08-15 12:02:00,
2013-08-15 14:07:00,84.1,65.7,29.95,South,191,5.0,6.0,54,0.00,,,0.00,VWS V14.01,2013-08-15 12:07:00,
2013-08-15 14:10:00,84.5,65.0,29.95,SW,215,9.0,9.0,52,0.00,,,0.00,VWS V14.01,2013-08-15 12:10:00,
2013-08-15 14:12:00,84.8,66.3,29.95,WSW,240,2.0,9.0,54,0.00,,,0.00,VWS V14.01,2013-08-15 12:12:00,
2013-08-15 14:17:00,84.0,66.1,29.95,SW,219,7.0,11.0,55,0.00,,,0.00,VWS V14.01,2013-08-15 12:17:00,
2013-08-15 14:20:00,84.8,66.8,29.95,SSW,210,5.0,11.0,55,0.00,,,0.00,VWS V14.01,2013-08-15 12:20:00,
2013-08-15 14:22:00,84.4,65.9,29.95,South,178,4.0,11.0,54,0.00,,,0.00,VWS V14.01,2013-08-15 12:22:00,
2013-08-15 14:27:00,85.3,67.3,29.95,SW,223,4.0,8.0,55,0.00,,,0.00,VWS V14.01,2013-08-15 12:27:00,
2013-08-15 14:30:00,84.3,66.4,29.95,SW,229,5.0,10.0,55,0.00,,,0.00,VWS V14.01,2013-08-15 12:30:00,
2013-08-15 14:32:00,84.2,66.3,29.95,South,188,6.0,10.0,55,0.00,,,0.00,VWS V14.01,2013-08-15 12:32:00,
2013-08-15 14:37:00,84.7,66.8,29.95,WSW,253,7.0,7.0,55,0.00,,,0.00,VWS V14.01,2013-08-15 12:37:00,
2013-08-15 14:40:00,84.3,65.9,29.95,SW,234,6.0,9.0,54,0.00,,,0.00,VWS V14.01,2013-08-15 12:40:00,
2013-08-15 14:42:00,84.6,66.7,29.95,WSW,250,7.0,9.0,55,0.00,,,0.00,VWS V14.01,2013-08-15 12:42:00,
2013-08-15 14:47:00,84.2,65.8,29.95,SW,231,6.0,7.0,54,0.00,,,0.00,VWS V14.01,2013-08-15 12:47:00,
2013-08-15 14:50:00,84.9,66.9,29.95,SW,224,7.0,9.0,55,0.00,,,0.00,VWS V14.01,2013-08-15 12:50:00,
2013-08-15 14:52:00,84.5,66.6,29.95,WSW,252,5.0,9.0,55,0.00,,,0.00,VWS V14.01,2013-08-15 12:52:00,
2013-08-15 14:57:00,84.6,66.1,29.95,SW,224,9.0,9.0,54,0.00,,,0.00,VWS V14.01,2013-08-15 12:57:00,
2013-08-15 15:00:00,84.5,67.1,29.95,SW,219,5.0,10.0,56,0.00,,,0.00,VWS V14.01,2013-08-15 13:00:00,
2013-08-15 15:02:00,84.4,67.0,29.95,SSW,196,7.0,10.0,56,0.00,,,0.00,VWS V14.01,2013-08-15 13:02:00,
2013-08-15 15:07:00,84.7,67.8,29.95,SSW,207,4.0,9.0,57,0.00,,,0.00,VWS V14.01,2013-08-15 13:07:00,
2013-08-15 15:10:00,85.5,68.5,29.95,WSW,251,8.0,9.0,57,0.00,,,0.00,VWS V14.01,2013-08-15 13:10:00,
2013-08-15 15:12:00,85.3,68.3,29.95,SW,217,4.0,9.0,57,0.00,,,0.00,VWS V14.01,2013-08-15 13:12:00,
2013-08-15 15:17:00,85.5,68.5,29.95,WSW,246,4.0,8.0,57,0.00,,,0.00,VWS V14.01,2013-08-15 13:17:00,
2013-08-15 15:20:00,84.6,68.2,29.95,WSW,255,4.0,9.0,58,0.00,,,0.00,VWS V14.01,2013-08-15 13:20:00,
2013-08-15 15:22:00,84.8,67.9,29.95,SW,229,8.0,9.0,57,0.00,,,0.00,VWS V14.01,2013-08-15 13:22:00,
2013-08-15 15:27:00,84.9,69.0,29.95,WSW,248,4.0,7.0,59,0.00,,,0.00,VWS V14.01,2013-08-15 13:27:00,
2013-08-15 15:30:00,84.6,68.7,29.94,WSW,242,6.0,10.0,59,0.00,,,0.00,VWS V14.01,2013-08-15 13:30:00,
2013-08-15 15:32:00,84.8,68.4,29.94,WSW,254,6.0,10.0,58,0.00,,,0.00,VWS V14.01,2013-08-15 13:32:00,
2013-08-15 15:37:00,84.9,69.0,29.94,West,269,5.0,8.0,59,0.00,,,0.00,VWS V14.01,2013-08-15 13:37:00,
2013-08-15 15:40:00,85.1,68.2,29.95,WSW,244,8.0,9.0,57,0.00,,,0.00,VWS V14.01,2013-08-15 13:40:00,
2013-08-15 15:42:00,85.4,67.4,29.94,WSW,248,6.0,8.0,55,0.00,,,0.00,VWS V14.01,2013-08-15 13:42:00,
2013-08-15 15:47:00,85.3,67.8,29.94,West,259,5.0,8.0,56,0.00,,,0.00,VWS V14.01,2013-08-15 13:47:00,
2013-08-15 15:50:00,85.3,67.3,29.94,WSW,242,8.0,9.0,55,0.00,,,0.00,VWS V14.01,2013-08-15 13:50:00,
2013-08-15 15:52:00,85.2,67.8,29.94,WSW,252,5.0,9.0,56,0.00,,,0.00,VWS V14.01,2013-08-15 13:52:00,
2013-08-15 15:57:00,85.5,67.0,29.94,West,269,4.0,8.0,54,0.00,,,0.00,VWS V14.01,2013-08-15 13:57:00,
2013-08-15 16:00:00,85.1,68.2,29.94,WSW,248,8.0,9.0,57,0.00,,,0.00,VWS V14.01,2013-08-15 14:00:00,
2013-08-15 16:02:00,85.3,67.8,29.94,SW,234,8.0,9.0,56,0.00,,,0.00,VWS V14.01,2013-08-15 14:02:00,
2013-08-15 16:07:00,84.8,68.4,29.94,WSW,244,8.0,9.0,58,0.00,,,0.00,VWS V14.01,2013-08-15 14:07:00,
2013-08-15 16:10:00,85.5,68.0,29.94,WNW,283,6.0,10.0,56,0.00,,,0.00,VWS V14.01,2013-08-15 14:10:00,
2013-08-15 16:12:00,85.2,68.8,29.94,WSW,257,0.0,9.0,58,0.00,,,0.00,VWS V14.01,2013-08-15 14:12:00,
2013-08-15 16:17:00,85.3,68.3,29.94,WSW,253,6.0,11.0,57,0.00,,,0.00,VWS V14.01,2013-08-15 14:17:00,
2013-08-15 16:20:00,85.4,69.4,29.94,WSW,257,9.0,11.0,59,0.00,,,0.00,VWS V14.01,2013-08-15 14:20:00,
2013-08-15 16:22:00,85.3,69.4,29.94,West,259,5.0,11.0,59,0.00,,,0.00,VWS V14.01,2013-08-15 14:22:00,
2013-08-15 16:27:00,85.3,69.4,29.94,West,259,8.0,9.0,59,0.00,,,0.00,VWS V14.01,2013-08-15 14:27:00,
2013-08-15 16:30:00,85.3,68.9,29.94,WSW,248,7.0,11.0,58,0.00,,,0.00,VWS V14.01,2013-08-15 14:30:00,
2013-08-15 16:32:00,85.1,68.7,29.94,WSW,238,9.0,10.0,58,0.00,,,0.00,VWS V14.01,2013-08-15 14:32:00,
2013-08-15 16:37:00,85.3,69.4,29.94,WSW,249,3.0,10.0,59,0.00,,,0.00,VWS V14.01,2013-08-15 14:37:00,
2013-08-15 16:40:00,85.5,69.6,29.94,West,259,9.0,11.0,59,0.00,,,0.00,VWS V14.01,2013-08-15 14:40:00,
2013-08-15 16:42:00,85.6,69.1,29.94,West,269,7.0,11.0,58,0.00,,,0.00,VWS V14.01,2013-08-15 14:42:00,
2013-08-15 16:47:00,85.5,69.1,29.94,West,262,7.0,9.0,58,0.00,,,0.00,VWS V14.01,2013-08-15 14:47:00,
2013-08-15 16:50:00,84.8,69.4,29.94,WSW,255,6.0,11.0,60,0.00,,,0.00,VWS V14.01,2013-08-15 14:50:00,
2013-08-15 16:53:00,84.9,69.5,29.94,WSW,250,6.0,11.0,60,0.00,,,0.00,VWS V14.01,2013-08-15 14:53:00,
2013-08-15 16:58:00,84.9,69.0,29.94,WSW,246,8.0,10.0,59,0.00,,,0.00,VWS V14.01,2013-08-15 14:58:00,
2013-08-15 17:00:00,85.1,69.7,29.94,WSW,250,4.0,10.0,60,0.00,,,0.00,VWS V14.01,2013-08-15 15:00:00,
2013-08-15 17:03:00,85.0,69.1,29.95,WSW,255,8.0,10.0,59,0.00,,,0.00,VWS V14.01,2013-08-15 15:03:00,
2013-08-15 17:08:00,84.9,69.5,29.94,SW,234,7.0,10.0,60,0.00,,,0.00,VWS V14.01,2013-08-15 15:08:00,
2013-08-15 17:10:00,84.4,69.0,29.95,WSW,246,6.0,10.0,60,0.00,,,0.00,VWS V14.01,2013-08-15 15:10:00,
2013-08-15 17:13:00,84.6,69.2,29.95,WSW,254,8.0,10.0,60,0.00,,,0.00,VWS V14.01,2013-08-15 15:13:00,
2013-08-15 17:18:00,84.4,69.5,29.95,West,269,9.0,9.0,61,0.00,,,0.00,VWS V14.01,2013-08-15 15:18:00,
2013-08-15 17:20:00,85.1,70.2,29.95,West,279,9.0,9.0,61,0.00,,,0.00,VWS V14.01,2013-08-15 15:20:00,
2013-08-15 17:23:00,84.6,70.2,29.94,WSW,248,7.0,9.0,62,0.00,,,0.00,VWS V14.01,2013-08-15 15:23:00,
2013-08-15 17:28:00,85.0,70.1,29.94,WSW,251,8.0,9.0,61,0.00,,,0.00,VWS V14.01,2013-08-15 15:28:00,
2013-08-15 17:30:00,85.1,70.2,29.94,WSW,252,3.0,10.0,61,0.00,,,0.00,VWS V14.01,2013-08-15 15:30:00,
2013-08-15 17:33:00,85.2,69.8,29.94,West,259,10.0,10.0,60,0.00,,,0.00,VWS V14.01,2013-08-15 15:33:00,
2013-08-15 17:38:00,85.1,70.6,29.94,West,261,3.0,10.0,62,0.00,,,0.00,VWS V14.01,2013-08-15 15:38:00,
2013-08-15 17:40:00,85.2,69.8,29.94,WSW,245,5.0,11.0,60,0.00,,,0.00,VWS V14.01,2013-08-15 15:40:00,
2013-08-15 17:43:00,85.4,69.9,29.94,West,267,6.0,10.0,60,0.00,,,0.00,VWS V14.01,2013-08-15 15:43:00,
2013-08-15 17:48:00,85.0,69.6,29.94,WSW,246,2.0,10.0,60,0.00,,,0.00,VWS V14.01,2013-08-15 15:48:00,
2013-08-15 17:50:00,84.9,69.5,29.94,WNW,284,7.0,10.0,60,0.00,,,0.00,VWS V14.01,2013-08-15 15:50:00,
2013-08-15 17:53:00,85.2,69.8,29.94,WSW,242,6.0,10.0,60,0.00,,,0.00,VWS V14.01,2013-08-15 15:53:00,
2013-08-15 17:58:00,84.9,69.0,29.94,WSW,252,5.0,10.0,59,0.00,,,0.00,VWS V14.01,2013-08-15 15:58:00,
2013-08-15 18:00:00,84.9,69.0,29.94,NW,304,5.0,10.0,59,0.00,,,0.00,VWS V14.01,2013-08-15 16:00:00,
2013-08-15 18:03:00,85.3,69.8,29.94,West,261,6.0,10.0,60,0.00,,,0.00,VWS V14.01,2013-08-15 16:03:00,
2013-08-15 18:08:00,84.9,69.0,29.94,WNW,298,4.0,6.0,59,0.00,,,0.00,VWS V14.01,2013-08-15 16:08:00,
2013-08-15 18:10:00,84.9,67.5,29.94,WNW,301,5.0,8.0,56,0.00,,,0.00,VWS V14.01,2013-08-15 16:10:00,
2013-08-15 18:13:00,85.0,68.1,29.94,WNW,282,8.0,8.0,57,0.00,,,0.00,VWS V14.01,2013-08-15 16:13:00,
2013-08-15 18:18:00,84.7,68.3,29.94,West,271,6.0,11.0,58,0.00,,,0.00,VWS V14.01,2013-08-15 16:18:00,
2013-08-15 18:20:00,84.7,68.8,29.94,NW,316,6.0,11.0,59,0.00,,,0.00,VWS V14.01,2013-08-15 16:20:00,
2013-08-15 18:23:00,84.6,68.7,29.94,WNW,289,2.0,11.0,59,0.00,,,0.00,VWS V14.01,2013-08-15 16:23:00,
2013-08-15 18:28:00,84.4,69.0,29.94,WNW,296,7.0,8.0,60,0.00,,,0.00,VWS V14.01,2013-08-15 16:28:00,
2013-08-15 18:30:00,84.2,67.8,29.94,WNW,284,4.0,8.0,58,0.00,,,0.00,VWS V14.01,2013-08-15 16:30:00,
2013-08-15 18:33:00,84.1,68.2,29.94,WNW,286,4.0,8.0,59,0.00,,,0.00,VWS V14.01,2013-08-15 16:33:00,
2013-08-15 18:38:00,84.1,68.2,29.94,NW,305,6.0,10.0,59,0.00,,,0.00,VWS V14.01,2013-08-15 16:38:00,
2013-08-15 18:40:00,83.6,67.3,29.94,WNW,298,8.0,11.0,58,0.00,,,0.00,VWS V14.01,2013-08-15 16:40:00,
2013-08-15 18:44:00,83.9,68.1,29.94,WNW,295,9.0,11.0,59,0.00,,,0.00,VWS V14.01,2013-08-15 16:44:00,
2013-08-15 18:49:00,83.8,68.0,29.94,WNW,292,8.0,9.0,59,0.00,,,0.00,VWS V14.01,2013-08-15 16:49:00,
2013-08-15 18:50:00,84.3,67.9,29.94,WNW,297,4.0,9.0,58,0.00,,,0.00,VWS V14.01,2013-08-15 16:50:00,
2013-08-15 18:54:00,84.1,67.7,29.94,WNW,297,2.0,9.0,58,0.00,,,0.00,VWS V14.01,2013-08-15 16:54:00,
2013-08-15 18:59:00,84.3,67.4,29.94,WNW,297,1.0,4.0,57,0.00,,,0.00,VWS V14.01,2013-08-15 16:59:00,
2013-08-15 19:00:00,84.9,69.0,29.94,NW,304,5.0,10.0,59,0.00,,,0.00,VWS V14.01,2013-08-15 17:00:00,
2013-08-15 19:03:00,84.2,66.8,29.94,WNW,297,3.0,4.0,56,0.00,,,0.00,VWS V14.01,2013-08-15 17:03:00,
2013-08-15 19:04:00,84.2,66.8,29.94,WNW,297,3.0,4.0,56,0.00,,,0.00,VWS V14.01,2013-08-15 17:04:00,
2013-08-15 19:09:00,83.8,66.4,29.94,WNW,302,1.0,5.0,56,0.00,,,0.00,VWS V14.01,2013-08-15 17:09:00,
2013-08-15 19:10:00,83.6,66.3,29.94,NNW,337,4.0,6.0,56,0.00,,,0.00,VWS V14.01,2013-08-15 17:10:00,
2013-08-15 19:14:00,83.7,66.3,29.94,NW,320,2.0,6.0,56,0.00,,,0.00,VWS V14.01,2013-08-15 17:14:00,
2013-08-15 19:19:00,83.5,66.2,29.94,NNW,342,3.0,4.0,56,0.00,,,0.00,VWS V14.01,2013-08-15 17:19:00,
2013-08-15 19:20:00,83.1,65.8,29.94,North,355,3.0,5.0,56,0.00,,,0.00,VWS V14.01,2013-08-15 17:20:00,
2013-08-15 19:24:00,83.2,65.9,29.94,North,355,3.0,5.0,56,0.00,,,0.00,VWS V14.01,2013-08-15 17:24:00,
2013-08-15 19:29:00,82.9,66.1,29.94,North,355,3.0,4.0,57,0.00,,,0.00,VWS V14.01,2013-08-15 17:29:00,
2013-08-15 19:30:00,82.6,65.8,29.94,North,355,4.0,7.0,57,0.00,,,0.00,VWS V14.01,2013-08-15 17:30:00,
2013-08-15 19:34:00,82.7,65.9,29.94,North,355,3.0,7.0,57,0.00,,,0.00,VWS V14.01,2013-08-15 17:34:00,
2013-08-15 19:39:00,82.7,65.4,29.94,North,355,3.0,4.0,56,0.00,,,0.00,VWS V14.01,2013-08-15 17:39:00,
2013-08-15 19:40:00,82.7,66.4,29.94,North,355,2.0,4.0,58,0.00,,,0.00,VWS V14.01,2013-08-15 17:40:00,
2013-08-15 19:44:00,82.7,65.4,29.94,North,355,1.0,4.0,56,0.00,,,0.00,VWS V14.01,2013-08-15 17:44:00,
2013-08-15 19:49:00,82.6,66.8,29.94,North,355,2.0,3.0,59,0.00,,,0.00,VWS V14.01,2013-08-15 17:49:00,
2013-08-15 19:50:00,82.1,66.8,29.94,North,5,2.0,5.0,60,0.00,,,0.00,VWS V14.01,2013-08-15 17:50:00,
2013-08-15 19:55:00,82.2,66.9,29.94,North,5,2.0,5.0,60,0.00,,,0.00,VWS V14.01,2013-08-15 17:55:00,
2013-08-15 20:00:00,81.7,67.4,29.94,NNE,12,5.0,5.0,62,0.00,,,0.00,VWS V14.01,2013-08-15 18:00:00,
2013-08-15 20:05:00,81.2,67.4,29.95,NNE,16,3.0,6.0,63,0.00,,,0.00,VWS V14.01,2013-08-15 18:05:00,
2013-08-15 20:10:00,81.0,67.2,29.95,NNE,16,2.0,5.0,63,0.00,,,0.00,VWS V14.01,2013-08-15 18:10:00,
2013-08-15 20:15:00,80.8,67.0,29.95,NNE,16,3.0,7.0,63,0.00,,,0.00,VWS V14.01,2013-08-15 18:15:00,
2013-08-15 20:20:00,81.0,67.7,29.95,NNE,16,2.0,6.0,64,0.00,,,0.00,VWS V14.01,2013-08-15 18:20:00,
2013-08-15 20:25:00,80.7,67.4,29.95,NNE,16,6.0,6.0,64,0.00,,,0.00,VWS V14.01,2013-08-15 18:25:00,
2013-08-15 20:30:00,80.6,67.8,29.95,NNE,16,4.0,6.0,65,0.00,,,0.00,VWS V14.01,2013-08-15 18:30:00,
2013-08-15 20:35:00,80.4,68.0,29.96,NNE,30,5.0,6.0,66,0.00,,,0.00,VWS V14.01,2013-08-15 18:35:00,
2013-08-15 20:40:00,80.3,67.9,29.96,NNE,29,3.0,6.0,66,0.00,,,0.00,VWS V14.01,2013-08-15 18:40:00,
2013-08-15 20:45:00,80.1,67.7,29.96,NNE,29,4.0,6.0,66,0.00,,,0.00,VWS V14.01,2013-08-15 18:45:00,
2013-08-15 20:50:00,80.0,68.1,29.96,NNE,29,2.0,5.0,67,0.00,,,0.00,VWS V14.01,2013-08-15 18:50:00,
2013-08-15 20:55:00,80.1,68.2,29.96,NNE,29,4.0,6.0,67,0.00,,,0.00,VWS V14.01,2013-08-15 18:55:00,
2013-08-15 21:00:00,80.1,67.7,29.96,NNE,29,3.0,6.0,66,0.00,,,0.00,VWS V14.01,2013-08-15 19:00:00,
2013-08-15 21:01:00,80.1,67.7,29.96,NNE,29,5.0,6.0,66,0.00,,,0.00,VWS V14.01,2013-08-15 19:01:00,
2013-08-15 21:06:00,80.1,67.7,29.96,NNE,29,3.0,6.0,66,0.00,,,0.00,VWS V14.01,2013-08-15 19:06:00,
2013-08-15 21:10:00,80.3,67.5,29.97,NNE,29,3.0,6.0,65,0.00,,,0.00,VWS V14.01,2013-08-15 19:10:00,
2013-08-15 21:11:00,80.0,67.6,29.97,NNE,29,3.0,6.0,66,0.00,,,0.00,VWS V14.01,2013-08-15 19:11:00,
2013-08-15 21:16:00,80.3,67.5,29.97,East,86,7.0,7.0,65,0.00,,,0.00,VWS V14.01,2013-08-15 19:16:00,
2013-08-15 21:20:00,81.4,67.1,29.97,ENE,58,4.0,8.0,62,0.00,,,0.00,VWS V14.01,2013-08-15 19:20:00,
2013-08-15 21:21:00,81.1,67.3,29.97,ENE,58,3.0,8.0,63,0.00,,,0.00,VWS V14.01,2013-08-15 19:21:00,
2013-08-15 21:26:00,81.5,67.2,29.97,ENE,58,1.0,4.0,62,0.00,,,0.00,VWS V14.01,2013-08-15 19:26:00,
2013-08-15 21:30:00,81.9,68.5,29.97,ENE,76,3.0,4.0,64,0.00,,,0.00,VWS V14.01,2013-08-15 19:30:00,
2013-08-15 21:31:00,81.8,68.0,29.97,ENE,58,0.0,4.0,63,0.00,,,0.00,VWS V14.01,2013-08-15 19:31:00,
2013-08-15 21:36:00,81.9,68.5,29.97,ENE,76,2.0,4.0,64,0.00,,,0.00,VWS V14.01,2013-08-15 19:36:00,
2013-08-15 21:40:00,82.1,68.7,29.98,ENE,76,1.0,8.0,64,0.00,,,0.00,VWS V14.01,2013-08-15 19:40:00,
2013-08-15 21:41:00,82.1,68.7,29.97,ENE,74,3.0,8.0,64,0.00,,,0.00,VWS V14.01,2013-08-15 19:41:00,
2013-08-15 21:46:00,82.1,68.7,29.98,ENE,76,4.0,4.0,64,0.00,,,0.00,VWS V14.01,2013-08-15 19:46:00,
2013-08-15 21:50:00,82.2,68.4,29.98,ENE,78,4.0,11.0,63,0.00,,,0.00,VWS V14.01,2013-08-15 19:50:00,
2013-08-15 21:51:00,82.1,68.7,29.98,ENE,71,7.0,11.0,64,0.00,,,0.00,VWS V14.01,2013-08-15 19:51:00,
2013-08-15 21:56:00,82.2,68.4,29.98,East,80,9.0,9.0,63,0.00,,,0.00,VWS V14.01,2013-08-15 19:56:00,
2013-08-15 22:00:00,82.1,68.3,29.98,East,90,5.0,9.0,63,0.00,,,0.00,VWS V14.01,2013-08-15 20:00:00,
2013-08-15 22:01:00,82.2,68.4,29.98,East,86,5.0,9.0,63,0.00,,,0.00,VWS V14.01,2013-08-15 20:01:00,
2013-08-15 22:07:00,82.1,67.8,29.98,East,92,8.0,9.0,62,0.00,,,0.00,VWS V14.01,2013-08-15 20:07:00,
2013-08-15 22:10:00,82.1,67.8,29.98,East,101,9.0,10.0,62,0.00,,,0.00,VWS V14.01,2013-08-15 20:10:00,
2013-08-15 22:11:00,82.2,67.9,29.98,East,94,7.0,9.0,62,0.00,,,0.00,VWS V14.01,2013-08-15 20:11:00,
2013-08-15 22:16:00,82.1,67.8,29.98,East,87,3.0,9.0,62,0.00,,,0.00,VWS V14.01,2013-08-15 20:16:00,
2013-08-15 22:20:00,81.8,68.0,29.98,East,84,5.0,9.0,63,0.00,,,0.00,VWS V14.01,2013-08-15 20:20:00,
2013-08-15 22:21:00,82.0,68.2,29.98,East,86,1.0,9.0,63,0.00,,,0.00,VWS V14.01,2013-08-15 20:21:00,
2013-08-15 22:27:00,81.8,68.4,29.99,East,84,2.0,6.0,64,0.00,,,0.00,VWS V14.01,2013-08-15 20:27:00,
2013-08-15 22:30:00,81.6,68.2,29.99,East,98,5.0,8.0,64,0.00,,,0.00,VWS V14.01,2013-08-15 20:30:00,
2013-08-15 22:32:00,81.7,68.3,29.99,East,93,5.0,8.0,64,0.00,,,0.00,VWS V14.01,2013-08-15 20:32:00,
2013-08-15 22:37:00,81.7,68.3,29.99,ESE,103,8.0,9.0,64,0.00,,,0.00,VWS V14.01,2013-08-15 20:37:00,
2013-08-15 22:40:00,81.6,68.7,29.99,ESE,103,4.0,9.0,65,0.00,,,0.00,VWS V14.01,2013-08-15 20:40:00,
2013-08-15 22:42:00,81.7,68.3,29.99,ESE,105,8.0,9.0,64,0.00,,,0.00,VWS V14.01,2013-08-15 20:42:00,
2013-08-15 22:47:00,81.6,68.7,29.99,ESE,103,2.0,4.0,65,0.00,,,0.00,VWS V14.01,2013-08-15 20:47:00,
2013-08-15 22:50:00,81.3,68.9,29.99,ESE,103,4.0,5.0,66,0.00,,,0.00,VWS V14.01,2013-08-15 20:50:00,
2013-08-15 22:52:00,81.4,69.0,29.99,ESE,103,1.0,5.0,66,0.00,,,0.00,VWS V14.01,2013-08-15 20:52:00,
2013-08-15 22:57:00,81.2,68.8,29.99,ESE,103,2.0,4.0,66,0.00,,,0.00,VWS V14.01,2013-08-15 20:57:00,
2013-08-15 23:00:00,80.9,68.5,29.99,ESE,104,1.0,7.0,66,0.00,,,0.00,VWS V14.01,2013-08-15 21:00:00,
2013-08-15 23:02:00,80.8,68.4,29.99,ESE,104,7.0,7.0,66,0.00,,,0.00,VWS V14.01,2013-08-15 21:02:00,
2013-08-15 23:07:00,80.9,68.5,29.99,ESE,103,3.0,5.0,66,0.00,,,0.00,VWS V14.01,2013-08-15 21:07:00,
2013-08-15 23:10:00,80.9,67.1,29.99,East,93,3.0,9.0,63,0.00,,,0.00,VWS V14.01,2013-08-15 21:10:00,
2013-08-15 23:12:00,80.9,67.6,29.99,East,96,3.0,9.0,64,0.00,,,0.00,VWS V14.01,2013-08-15 21:12:00,
2013-08-15 23:17:00,80.8,66.6,29.99,East,96,3.0,7.0,62,0.00,,,0.00,VWS V14.01,2013-08-15 21:17:00,
2013-08-15 23:20:00,80.4,66.7,29.99,East,94,3.0,7.0,63,0.00,,,0.00,VWS V14.01,2013-08-15 21:20:00,
2013-08-15 23:22:00,80.7,66.5,29.99,East,94,2.0,7.0,62,0.00,,,0.00,VWS V14.01,2013-08-15 21:22:00,
2013-08-15 23:27:00,80.3,66.6,29.99,East,94,1.0,5.0,63,0.00,,,0.00,VWS V14.01,2013-08-15 21:27:00,
2013-08-15 23:30:00,80.0,66.3,29.99,East,93,1.0,5.0,63,0.00,,,0.00,VWS V14.01,2013-08-15 21:30:00,
2013-08-15 23:32:00,80.1,66.4,29.99,East,93,3.0,5.0,63,0.00,,,0.00,VWS V14.01,2013-08-15 21:32:00,
2013-08-15 23:38:00,80.0,65.8,29.99,East,94,1.0,2.0,62,0.00,,,0.00,VWS V14.01,2013-08-15 21:38:00,
2013-08-15 23:40:00,79.9,65.7,30.00,East,93,0.0,3.0,62,0.00,,,0.00,VWS V14.01,2013-08-15 21:40:00,
2013-08-15 23:43:00,79.9,65.7,29.99,East,93,1.0,3.0,62,0.00,,,0.00,VWS V14.01,2013-08-15 21:43:00,
2013-08-15 23:48:00,79.7,65.5,30.00,East,93,0.0,0.0,62,0.00,,,0.00,VWS V14.01,2013-08-15 21:48:00,
2013-08-15 23:50:00,78.7,65.1,30.00,East,92,5.0,6.0,63,0.00,,,0.00,VWS V14.01,2013-08-15 21:50:00,
2013-08-15 23:53:00,79.2,65.1,30.00,East,93,3.0,3.0,62,0.00,,,0.00,VWS V14.01,2013-08-15 21:53:00,
2013-08-15 23:58:00,78.5,64.4,30.00,East,92,2.0,5.0,62,0.00,,,0.00,VWS V14.01,2013-08-15 21:58:00,